COSMOS 2111 (GLONASS)

Satellite information

Favourite Embed

Satellite Type and Status

PAYLOADIN ORBIT

Key statistics

Satellite COSMOS 2111 (GLONASS) at a glance.

Uptime

12691

Days in orbit

Revolutions

≈ 2.1

Per day

Orbit

MEO

Medium Earth Orbit

Inclination

64.8

Latest

Satellite identification and parameters

Extended collection of information and parameters for COSMOS 2111 (GLONASS).

Object identification

Identified? True

Debris? False

Object name: COSMOS 2111 (GLONASS)

International designator: 1990-110C

Object number (NORAD): 21008

Object ID (CCSDS): 21008

Country: COMMONWEALTH OF INDEPENDENT STATES (CIS)

Current information (Y/N): Y

RCS size: LARGE

Orbital parameters

Period: 675.743 minutes

Inclination: 64.7523 deg

SMA: 25508.281 km

Apoapsis: 19175.714 km

Periapsis: 19084.579 km

RAAN: 81.1067 deg

Eccentricy: 0.00178639

Argument of periapsis: 236.879 deg

Mean anomaly: 305.9412 deg

Mean motion: 2.13098782 rev/day

Mean motion (dot): 0.00000029 rev/day2

B* drag term: 0.0 1/REarth

Two-line elements (TLE)

Creation date: Sept. 1, 2025, 7:24 p.m.

Reference frame: TEME

Reference center: EARTH

Epoch: Sept. 1, 2025, 11:26 a.m. UTC

TLE line 0: 0 COSMOS 2111 (GLONASS)

TLE line 1: 1 21008U 90110C 25244.47640319 .00000029 00000-0 00000-0 0 9994

TLE line 2: 2 21008 64.7523 81.1067 0017864 236.8790 305.9412 2.13098782270243

Live tracking on map

Real-time ground track for satellite COSMOS 2111 (GLONASS).

In-orbit conjunctions

There are no conjunctions computed for COSMOS 2111 (GLONASS), at the moment. Check back to stay up to date, as we update our databases every day.

Go to all conjunctions

Associated space launch

GLONASS navigation satellites

COSMOS 2111 (GLONASS) was lifted into orbit during the mission ‘Proton | Uragan 39 to 41’, on board a Proton space rocket.

The launch took place on Dec. 8, 1990, 2:43 a.m. from 200/40.

For more information about the launch, click the button.

Launch to space Proton | Uragan 39 to 41
Proton | Uragan 39 to 41

Agency: N/A

Status: Launch Successful

Launch date: Dec. 8, 1990, 2:43 a.m. UTC

Rocket: Proton

Launch pad: 200/40

Location: Baikonur Cosmodrome, Republic of Kazakhstan

...

Latest news about this satellite

There are no fresh news available about this satellite. Check back as we update our databases every day.


Newsletter sign-up

Weekly statistics, charts and insights to help you stay on top of the space industry.